Afton Municipal Airport, WY

8:55 AM MST on December 13, 2019 (GMT -0700)
Afton Municipal

Weather History for KAFO - October, 2019

Change the Weather History Date:

Wednesday, October 30, 2019

  Actual Average Record
Temperature  
Mean Temperature 5 °F -  
Max Temperature 21 °F 48 °F 62 °F (2014)
Min Temperature -11 °F 19 °F 19 °F (2018)
Degree Days  
Heating Degree Days 60    
Moisture  
Dew Point -3 °F    
Average Humidity 71    
Maximum Humidity 92    
Minimum Humidity 42    
Precipitation  
Precipitation 0.00 in - - ()
Sea Level Pressure  
Sea Level Pressure 30.37 in    
Wind  
Wind Speed 1 mph ()    
Max Wind Speed 8 mph    
Max Gust Speed -    
Visibility 9.8 miles    
Events Snow    
Averages and records for this station are not official NWS values.
T = Trace of Precipitation, MM = Missing Value Source: Averaged Metar Reports

Daily Weather History Graph

Daily Weather History Graph

Search for Another Location

Airport or City:

Astronomy

Oct. 30, 2019 Rise Set
Actual Time 7:55 AM MDT 6:19 PM MDT
Civil Twilight 7:25 AM MDT 6:48 PM MDT
Nautical Twilight 6:52 AM MDT 7:21 PM MDT
Astronomical Twilight 6:19 AM MDT 7:54 PM MDT
Moon 10:45 AM MDT (10/30) 8:26 PM MDT (10/30)
Length of Visible Light 11h 22m
Length of Day
10h 24m
Waxing Crescent, 9% of the Moon is Illuminated
Oct 30
Waxing Crescent
Nov 4
First Quarter
Nov 12
Full
Nov 19
Last Quarter
Nov 26
New

Hourly Weather History & Observations

Time (MDT) Temp. Windchill Dew Point Humidity Pressure Visibility Wind Dir Wind Speed Gust Speed Precip Events Conditions
12:15 AM 3.2 °F - -2.2 °F 78% 30.25 in 7.0 mi Calm Calm - N/A Snow Light Snow
12:35 AM 3.2 °F - -0.4 °F 85% 30.26 in 10.0 mi Calm Calm - N/A Snow Light Snow
12:55 AM 3.2 °F - -0.4 °F 85% 30.26 in 10.0 mi Calm Calm - N/A Snow Light Snow
1:15 AM 1.4 °F - -0.4 °F 92% 30.26 in 10.0 mi Calm Calm - N/A Snow Light Snow
1:35 AM 1.4 °F - -2.2 °F 85% 30.27 in 10.0 mi Calm Calm - N/A   Clear
1:55 AM -0.4 °F - -4.0 °F 85% 30.28 in 10.0 mi Calm Calm - N/A   Clear
2:15 AM -0.4 °F - -5.8 °F 78% 30.28 in 10.0 mi Calm Calm - N/A   Clear
2:35 AM -0.4 °F - -4.0 °F 85% 30.29 in 10.0 mi Calm Calm - N/A   Mostly Cloudy
3:15 AM -4.0 °F -14.6 °F -9.4 °F 78% 30.30 in 10.0 mi SSW 4.6 mph - N/A   Scattered Clouds
3:35 AM -2.2 °F - -5.8 °F 85% 30.30 in 10.0 mi Calm Calm - N/A   Scattered Clouds
3:55 AM -0.4 °F - -5.8 °F 78% 30.30 in 10.0 mi Calm Calm - N/A   Scattered Clouds
4:15 AM -4.0 °F - -7.6 °F 85% 30.30 in 10.0 mi Calm Calm - N/A   Clear
4:35 AM -5.8 °F - -7.6 °F 92% 30.31 in 10.0 mi Calm Calm - N/A   Clear
4:55 AM -4.0 °F - -7.6 °F 85% 30.32 in 10.0 mi Calm Calm - N/A   Clear
5:15 AM -7.6 °F -16.5 °F -9.4 °F 92% 30.33 in 10.0 mi SE 3.5 mph - N/A   Clear
5:35 AM -5.8 °F -16.7 °F -9.4 °F 84% 30.33 in 10.0 mi South 4.6 mph - N/A   Clear
5:55 AM -7.6 °F -18.8 °F -13.0 °F 77% 30.34 in 10.0 mi South 4.6 mph - N/A   Clear
6:15 AM -4.0 °F - -7.6 °F 85% 30.33 in 10.0 mi Calm Calm - N/A   Clear
6:35 AM -9.4 °F - -14.8 °F 77% 30.34 in 10.0 mi Calm Calm - N/A   Scattered Clouds
6:55 AM -5.8 °F - -9.4 °F 84% 30.34 in 10.0 mi Calm Calm - N/A   Mostly Cloudy
7:15 AM -7.6 °F - -13.0 °F 77% 30.34 in 10.0 mi Calm Calm - N/A   Scattered Clouds
7:35 AM -11.2 °F - -14.8 °F 84% 30.36 in 10.0 mi Calm Calm - N/A   Clear
7:55 AM -9.4 °F -18.6 °F -14.8 °F 77% 30.36 in 10.0 mi South 3.5 mph - N/A   Clear
8:15 AM -9.4 °F - -14.8 °F 77% 30.37 in 10.0 mi Calm Calm - N/A   Clear
8:35 AM -7.6 °F - -13.0 °F 77% 30.37 in 10.0 mi Calm Calm - N/A   Clear
8:55 AM -7.6 °F - -13.0 °F 77% 30.38 in 10.0 mi Calm Calm - N/A   Clear
9:35 AM -0.4 °F - -5.8 °F 78% 30.39 in 1.0 mi Calm Calm - N/A   Mist
9:55 AM -0.4 °F - -5.8 °F 78% 30.40 in 7.0 mi Calm Calm - N/A   Clear
10:15 AM 1.4 °F - -5.8 °F 72% 30.40 in 10.0 mi Calm Calm - N/A   Clear
10:35 AM 3.2 °F - -4.0 °F 72% 30.40 in 10.0 mi Calm Calm - N/A   Clear
10:55 AM 5.0 °F - -4.0 °F 66% 30.40 in 10.0 mi Calm Calm - N/A   Clear
11:15 AM 8.6 °F - -4.0 °F 57% 30.40 in 10.0 mi Calm Calm - N/A   Clear
11:35 AM 5.0 °F - -4.0 °F 66% 30.41 in 10.0 mi Calm Calm - N/A   Clear
11:55 AM 8.6 °F - -2.2 °F 62% 30.41 in 10.0 mi Calm Calm - N/A   Clear
12:15 PM 10.4 °F - -0.4 °F 62% 30.41 in 10.0 mi Calm Calm - N/A   Clear
12:35 PM 10.4 °F - -0.4 °F 62% 30.41 in 10.0 mi Calm Calm - N/A   Clear
12:55 PM 12.2 °F - 1.4 °F 62% 30.39 in 10.0 mi Calm Calm - N/A   Clear
1:15 PM 14.0 °F - 1.4 °F 57% 30.39 in 10.0 mi Calm Calm - N/A   Clear
1:35 PM 14.0 °F - 1.4 °F 57% 30.38 in 10.0 mi Calm Calm - N/A   Clear
1:55 PM 15.8 °F - 3.2 °F 58% 30.38 in 10.0 mi Calm Calm - N/A   Clear
2:15 PM 15.8 °F - 3.2 °F 58% 30.37 in 10.0 mi Calm Calm - N/A   Clear
2:35 PM 15.8 °F - 3.2 °F 58% 30.37 in 10.0 mi Calm Calm - N/A   Clear
2:55 PM 17.6 °F - 3.2 °F 53% 30.36 in 10.0 mi Calm Calm - N/A   Clear
3:15 PM 19.4 °F 14.3 °F 3.2 °F 49% 30.37 in 10.0 mi NW 3.5 mph - N/A   Clear
3:35 PM 19.4 °F 12.8 °F 3.2 °F 49% 30.37 in 10.0 mi NNW 4.6 mph - N/A   Clear
3:55 PM 19.4 °F 14.3 °F 3.2 °F 49% 30.38 in 10.0 mi NW 3.5 mph - N/A   Clear
4:35 PM 19.4 °F 14.3 °F 3.2 °F 49% 30.38 in 10.0 mi WNW 3.5 mph - N/A   Clear
4:55 PM 21.2 °F - 3.2 °F 46% 30.39 in 10.0 mi Calm Calm - N/A   Clear
5:15 PM 21.2 °F 14.9 °F 1.4 °F 42% 30.39 in 10.0 mi North 4.6 mph - N/A   Clear
5:35 PM 19.4 °F 12.8 °F 1.4 °F 46% 30.39 in 10.0 mi North 4.6 mph - N/A   Clear
5:55 PM 17.6 °F 8.2 °F 1.4 °F 49% 30.39 in 10.0 mi North 6.9 mph - N/A   Clear
6:15 PM 14.0 °F 2.9 °F 1.4 °F 57% 30.40 in 10.0 mi North 8.1 mph - N/A   Clear
6:35 PM 14.0 °F - -0.4 °F 53% 30.41 in 10.0 mi Calm Calm - N/A   Clear
6:55 PM 10.4 °F 4.0 °F 3.2 °F 73% 30.41 in 10.0 mi WNW 3.5 mph - N/A   Clear
7:15 PM 10.4 °F - 3.2 °F 73% 30.41 in 10.0 mi North - - N/A   Clear
7:35 PM 10.4 °F - 3.2 °F 73% 30.41 in 10.0 mi Calm Calm - N/A   Clear
7:55 PM 8.6 °F - -0.4 °F 67% 30.41 in 10.0 mi Calm Calm - N/A   Clear
8:35 PM 8.6 °F 2.0 °F 1.4 °F 73% 30.42 in 10.0 mi South 3.5 mph - N/A   Clear
8:55 PM 8.6 °F 0.1 °F -0.4 °F 67% 30.42 in 10.0 mi SSE 4.6 mph - N/A   Clear
9:15 PM 8.6 °F - -0.4 °F 67% 30.43 in 10.0 mi Calm Calm - N/A   Clear
9:35 PM 6.8 °F -0.1 °F 1.4 °F 79% 30.43 in 10.0 mi SSE 3.5 mph - N/A   Clear
9:55 PM 3.2 °F -9.1 °F -0.4 °F 85% 30.43 in 10.0 mi South 6.9 mph - N/A   Clear
10:15 PM 5.0 °F -4.1 °F -0.4 °F 78% 30.43 in 10.0 mi South 4.6 mph - N/A   Clear
10:35 PM 3.2 °F -9.1 °F -2.2 °F 78% 30.43 in 10.0 mi SSE 6.9 mph - N/A   Clear
10:55 PM 5.0 °F -2.1 °F -0.4 °F 78% 30.43 in 10.0 mi SSE 3.5 mph - N/A   Clear
11:35 PM 3.2 °F -6.2 °F -0.4 °F 85% 30.44 in 10.0 mi SSE 4.6 mph - N/A   Clear
11:55 PM 3.2 °F -7.8 °F -2.2 °F 78% 30.44 in 10.0 mi South 5.8 mph - N/A   Clear